Tracking 27086 objects as of 22-Mar-2023
HD Live streaming from Space Station
objects crossing your sky now

SL-6 R/B(2)

Track SL-6 R/B(2) now!


NORAD ID: 10949
Int'l Code: 1978-055E
Perigee: 598.5 km
Apogee: 40,402.2 km
Inclination: 63.4 °
Period: 730.6 minutes
Semi major axis: 26871 km
RCS: 7.3545 m2 (large)
Launch date: June 2, 1978
Source: Commonwealth of Independent States (former USSR) (CIS)
Launch site: PLESETSK MISSILE AND SPACE COMPLEX (PKMTR)

Note: This is a ROCKET BODY
Your satellite tracking list
Your tracking list is empty




NASA's NSSDC Master Catalog

Two Line Element Set (TLE):
1 10949U 78055E   23079.18242362 -.00000990  00000-0  10452-2 0  9990
2 10949  63.3715  34.6834 7406331 278.9345  11.3933  1.97091418216818
Source of the keplerian elements: AFSPC